Flag for U.S.A. Weather past 2 weeks in Ontario, Oregon, U.S.A.

Now
71 °F

Clear.


Feels Like: 77 °F
Forecast: 52 / 87 °F
Wind: No wind

Location: Ontario Municipal Airport

Current Time: Sep 23, 2014 at 9:23:40 PM

Latest Report: Sep 23, 2014 at 8:53 PM


Visibility: 10 mi

Pressure: 29.85 "Hg

Humidity: 55%

Dew point: 54 °F

Location of OntarioLocation

Historic Weather in Ontario — Graph

°F

Ontario temperature yesterday

Maximum temperature yesterday: 80 °F (at 3:53 PM)
Minimum temperature yesterday: 63 °F (at 6:53 AM)
Average temperature yesterday: 71 °F

Past Weeks' High & Low Weather Summary

 TemperatureHumidityPressure
High92 °F (Sep 16, 4:53 PM)90% (Sep 23, 5:53 AM)30.27 "Hg (Sep 23, 5:53 AM)
Low39 °F (Sep 13, 7:53 AM)12% (Sep 11, 1:53 PM)29.62 "Hg (Sep 17, 11:53 PM)
Average68 °F42%29.95 "Hg
* Reported Sep 8 7:53 PM — Sep 23 7:53 PM, Ontario, Weather by CustomWeather, © 2014

Note: Actual official high and low records may vary slightly from our data, if they occured in-between our weather recording intervals... More about our weather records

Advertising

Ontario weather history for previous 24 hours

 ConditionsComfort  
Time TempWeatherWind HumidityBarometerVisibility
7:53 PM
Sep 23
73 °FSunny.No wind55%29.85 "Hg10 mi
6:53 PM77 °FSunny.5 mph45%29.85 "Hg10 mi
5:53 PM79 °FSunny.3 mph42%29.87 "Hg10 mi
4:53 PM81 °FSunny.5 mph39%29.88 "Hg10 mi
3:53 PM80 °FSunny.3 mph39%29.90 "Hg10 mi
2:53 PM78 °FSunny.No wind43%29.93 "Hg6 mi
1:53 PM78 °FSunny.10 mph43%29.95 "Hg10 mi
12:53 PM74 °FSunny.8 mph53%29.96 "Hg10 mi
11:53 AM73 °FSunny.8 mph55%29.97 "Hg10 mi
10:53 AM68 °FSunny.3 mph68%30.00 "Hg10 mi
9:53 AM65 °FSunny.No wind73%29.99 "Hg10 mi
8:53 AM61 °FSunny.No wind81%29.99 "Hg10 mi
7:53 AM58 °FClear.No wind90%29.98 "Hg10 mi
6:53 AM59 °FClear.No wind87%29.95 "Hg10 mi
5:53 AM58 °FClear.5 mph90%29.96 "Hg10 mi
4:53 AM60 °FClear.3 mph83%29.95 "Hg10 mi
3:53 AM62 °FClear.3 mph80%29.95 "Hg10 mi
2:53 AM62 °FClear.6 mph83%29.96 "Hg10 mi
1:53 AM64 °FClear.No wind81%29.96 "Hg10 mi
12:53 AM69 °FPassing clouds.No wind63%29.99 "Hg10 mi
11:53 PM
Sep 22
72 °FClear.15 mph53%29.99 "Hg10 mi
10:53 PM66 °FClear.5 mph65%29.96 "Hg10 mi
9:53 PM67 °FClear.No wind66%29.93 "Hg10 mi
Weather by CustomWeather, © 2014

See weather overviewHow to use our weather pages